Date String (YYYY-MM-DD hh:mm:ss) UTC,Instrument flags,absolute air pressure of the measurement (hPa),sample flow rate (lpm),inlet stack bypass flow (lpm),air temperature of the measurement (°C),ambient temperature measured by the external sensor (°C),aerosol sample conditioner tube jacket temperature (°C),OPC LED temperature (°C),internal box temperature (°C),relative humidity of the measurement (%),span deviation,mass concentration of particles derived from Lorenz-Mie calculation of OPC scattering (μg/m³),mass concentration of particles derived from Lorenz-Mie calculation of OPC scattering (μg/m³),mass concentration of particles derived from Lorenz-Mie calculation of OPC scattering (μg/m³)
DateTimeUTC,F1_M11,P_M11,Q1_M11,Q2_M11,T1_M11,T2_M11,T3_M11,T4_M11,T5_M11,U1_M11,ZSPAN_M11,X0_M11,X2_M11,X1_M11
2024-04-03 17:00:00,SystemResetWarning,0830.3,5.00,000.00,023.4,022.9,000.0,031.6,025.2,010.3,0000.0,0008.34,0003.58,0002.11
2024-04-03 17:01:00,SystemResetWarning,0830.3,4.99,000.00,023.4,022.9,000.0,031.6,025.2,011.7,0000.0,0008.34,0003.57,0002.10
2024-04-03 17:02:00,SystemResetWarning,0830.3,5.00,000.00,023.4,023.0,000.0,031.6,025.2,012.5,0000.0,0008.63,0003.52,0002.10
2024-04-03 17:03:00,SystemResetWarning,0830.4,5.00,000.00,023.4,023.0,000.0,031.6,025.2,011.8,0000.0,0008.62,0003.48,0002.08
2024-04-03 17:04:00,SystemResetWarning,0830.4,4.99,000.00,023.5,023.0,000.0,031.7,025.2,011.0,0000.0,0008.42,0003.43,0002.07
2024-04-03 17:05:00,SystemResetWarning,0830.4,5.00,000.00,023.5,023.0,000.0,031.7,025.3,010.3,0000.0,0008.44,0003.48,0002.09
2024-04-03 17:06:00,SystemResetWarning,0830.4,5.01,000.00,023.5,023.0,000.0,031.7,025.3,010.5,0000.0,0008.49,0003.52,0002.10
2024-04-03 17:07:00,SystemResetWarning,0830.4,5.00,000.00,023.5,023.0,000.0,031.7,025.3,010.9,0000.0,0008.39,0003.53,0002.12
2024-04-03 17:08:00,SystemResetWarning,0830.4,5.00,000.00,023.5,023.1,000.0,031.7,025.3,011.1,0000.0,0008.48,0003.50,0002.13
2024-04-03 17:09:00,SystemResetWarning,0830.4,5.00,000.00,023.6,023.1,000.0,031.8,025.4,010.6,0000.0,0008.29,0003.41,0002.13
2024-04-03 17:10:00,SystemResetWarning,0830.3,5.01,000.00,023.6,023.1,000.0,031.8,025.4,010.8,0000.0,0007.91,0003.37,0002.15
2024-04-03 17:11:00,SystemResetWarning,0830.3,5.00,000.00,023.6,023.1,000.0,031.8,025.4,010.6,0000.0,0007.77,0003.33,0002.12
2024-04-03 17:12:00,SystemResetWarning,0830.3,5.00,000.00,023.6,023.1,000.0,031.8,025.4,010.2,0000.0,0007.71,0003.31,0002.13
2024-04-03 17:13:00,SystemResetWarning,0830.3,4.99,000.00,023.6,023.2,000.0,031.8,025.4,010.0,0000.0,0007.42,0003.35,0002.13
2024-04-03 17:14:00,SystemResetWarning,0830.3,5.01,000.00,023.7,023.2,000.0,031.9,025.5,010.6,0000.0,0007.34,0003.38,0002.14
2024-04-03 17:15:00,SystemResetWarning,0830.3,5.01,000.00,023.7,023.2,000.0,031.9,025.5,011.1,0000.0,0007.44,0003.41,0002.14
2024-04-03 17:16:00,SystemResetWarning,0830.2,5.00,000.00,023.7,023.2,000.0,031.9,025.5,010.8,0000.0,0007.44,0003.38,0002.14
2024-04-03 17:17:00,SystemResetWarning,0830.3,4.99,000.00,023.7,023.2,000.0,031.9,025.5,010.9,0000.0,0007.34,0003.33,0002.12
2024-04-03 17:18:00,SystemResetWarning,0830.2,4.99,000.00,023.7,023.2,000.0,031.9,025.5,010.8,0000.0,0007.29,0003.32,0002.11
2024-04-03 17:19:00,SystemResetWarning,0830.3,5.01,000.00,023.7,023.3,000.0,032.0,025.5,009.9,0000.0,0007.11,0003.33,0002.11
2024-04-03 17:20:00,SystemResetWarning,0830.2,5.01,000.00,023.8,023.3,000.0,032.0,025.5,010.1,0000.0,0006.89,0003.34,0002.12
2024-04-03 17:21:00,SystemResetWarning,0830.3,5.00,000.00,023.8,023.3,000.0,032.0,025.5,011.0,0000.0,0006.95,0003.33,0002.12
2024-04-03 17:22:00,SystemResetWarning,0830.2,5.00,000.00,023.8,023.3,000.0,032.0,025.6,010.1,0000.0,0007.09,0003.34,0002.12
2024-04-03 17:23:00,SystemResetWarning,0830.2,5.00,000.00,023.8,023.4,000.0,032.0,025.6,009.9,0000.0,0007.24,0003.36,0002.12
2024-04-03 17:24:00,SystemResetWarning,0830.2,5.00,000.00,023.8,023.4,000.0,032.1,025.6,009.7,0000.0,0007.02,0003.31,0002.10
2024-04-03 17:25:00,SystemResetWarning,0830.3,5.00,000.00,023.9,023.4,000.0,032.1,025.6,009.8,0000.0,0006.81,0003.28,0002.10
2024-04-03 17:26:00,SystemResetWarning,0830.1,5.00,000.00,023.9,023.4,000.0,032.1,025.6,010.6,0000.0,0006.78,0003.27,0002.11
2024-04-03 17:27:00,SystemResetWarning,0830.0,5.01,000.00,023.9,023.4,000.0,032.1,025.7,011.9,0000.0,0006.78,0003.30,0002.10
2024-04-03 17:28:00,SystemResetWarning,0830.0,5.01,000.00,023.9,023.4,000.0,032.1,025.7,011.7,0000.0,0006.93,0003.34,0002.13
2024-04-03 17:29:00,SystemResetWarning,0830.1,5.00,000.00,023.9,023.5,000.0,032.2,025.7,012.1,0000.0,0007.02,0003.35,0002.14
2024-04-03 17:30:00,SystemResetWarning,0830.3,5.00,000.00,024.0,023.5,000.0,032.2,025.7,010.9,0000.0,0007.14,0003.38,0002.14
2024-04-03 17:31:00,SystemResetWarning,0830.3,5.00,000.00,024.0,023.5,000.0,032.2,025.7,011.5,0000.0,0007.25,0003.40,0002.13
2024-04-03 17:32:00,SystemResetWarning,0830.3,5.00,000.00,024.0,023.5,000.0,032.2,025.7,012.0,0000.0,0007.17,0003.40,0002.13
2024-04-03 17:33:00,SystemResetWarning,0830.2,4.99,000.00,024.0,023.5,000.0,032.2,025.8,012.1,0000.0,0006.98,0003.38,0002.12
2024-04-03 17:34:00,SystemResetWarning,0830.3,5.00,000.00,024.0,023.5,000.0,032.3,025.8,011.9,0000.0,0006.81,0003.35,0002.12
2024-04-03 17:35:00,SystemResetWarning,0830.2,5.01,000.00,024.0,023.5,000.0,032.3,025.8,011.4,0000.0,0007.09,0003.39,0002.12
2024-04-03 17:36:00,SystemResetWarning,0830.3,5.01,000.00,024.0,023.5,000.0,032.3,025.9,011.3,0000.0,0007.23,0003.39,0002.13
2024-04-03 17:37:00,SystemResetWarning,0830.3,4.99,000.00,024.1,023.5,000.0,032.3,025.9,011.4,0000.0,0007.11,0003.37,0002.11
2024-04-03 17:38:00,SystemResetWarning,0830.3,4.99,000.00,024.1,023.5,000.0,032.3,025.9,010.9,0000.0,0006.88,0003.33,0002.10
2024-04-03 17:39:00,SystemResetWarning,0830.3,4.99,000.00,024.1,023.5,000.0,032.3,025.9,010.8,0000.0,0006.45,0003.25,0002.07
2024-04-03 17:40:00,SystemResetWarning,0830.3,5.01,000.00,024.1,023.6,000.0,032.3,025.9,011.0,0000.0,0006.30,0003.22,0002.06
2024-04-03 17:41:00,SystemResetWarning,0830.3,5.00,000.00,024.1,023.6,000.0,032.4,025.9,010.9,0000.0,0006.05,0003.17,0002.03
2024-04-03 17:42:00,SystemResetWarning,0830.3,5.01,000.00,024.1,023.6,000.0,032.4,025.9,011.0,0000.0,0005.92,0003.13,0002.02
2024-04-03 17:43:00,SystemResetWarning,0830.3,5.00,000.00,024.1,023.6,000.0,032.4,025.9,011.2,0000.0,0005.72,0003.08,0002.01
2024-04-03 17:44:00,SystemResetWarning,0830.2,5.00,000.00,024.2,023.6,000.0,032.4,025.9,011.4,0000.0,0005.71,0003.08,0002.01
2024-04-03 17:45:00,SystemResetWarning,0830.2,4.99,000.00,024.2,023.6,000.0,032.4,026.0,010.9,0000.0,0005.78,0003.11,0002.02
2024-04-03 17:46:00,SystemResetWarning,0830.2,5.00,000.00,024.2,023.7,000.0,032.4,026.0,010.9,0000.0,0006.09,0003.16,0002.04
2024-04-03 17:47:00,SystemResetWarning,0830.1,5.00,000.00,024.2,023.7,000.0,032.5,026.0,011.4,0000.0,0005.93,0003.15,0002.04
2024-04-03 17:48:00,SystemResetWarning,0830.1,5.00,000.00,024.2,023.7,000.0,032.5,026.0,010.0,0000.0,0005.86,0003.14,0002.05
2024-04-03 17:49:00,SystemResetWarning,0830.1,4.99,000.00,024.2,023.7,000.0,032.5,026.0,009.5,0000.0,0006.50,0003.17,0002.05
2024-04-03 17:50:00,SystemResetWarning,0830.2,5.00,000.00,024.2,023.7,000.0,032.5,026.0,010.2,0000.0,0007.00,0003.24,0002.06
2024-04-03 17:51:00,SystemResetWarning,0830.1,5.01,000.00,024.2,023.7,000.0,032.5,026.1,010.5,0000.0,0007.21,0003.27,0002.05
2024-04-03 17:52:00,SystemResetWarning,0830.0,5.00,000.00,024.3,023.7,000.0,032.5,026.1,011.3,0000.0,0007.57,0003.33,0002.07
2024-04-03 17:53:00,SystemResetWarning,0829.8,5.00,000.00,024.3,023.7,000.0,032.6,026.1,011.4,0000.0,0007.61,0003.35,0002.09
2024-04-03 17:54:00,SystemResetWarning,0830.0,5.00,000.00,024.3,023.7,000.0,032.6,026.1,011.3,0000.0,0007.82,0003.40,0002.09
2024-04-03 17:55:00,SystemResetWarning,0830.0,5.00,000.00,024.3,023.8,000.0,032.6,026.1,010.7,0000.0,0007.89,0003.42,0002.09
2024-04-03 17:56:00,SystemResetWarning,0830.1,5.01,000.00,024.3,023.8,000.0,032.6,026.1,011.0,0000.0,0007.97,0003.44,0002.09
2024-04-03 17:57:00,SystemResetWarning,0830.1,5.00,000.00,024.3,023.8,000.0,032.6,026.1,011.6,0000.0,0007.82,0003.41,0002.07
2024-04-03 17:58:00,SystemResetWarning,0830.1,4.99,000.00,024.3,023.8,000.0,032.6,026.1,011.7,0000.0,0007.90,0003.43,0002.06
2024-04-03 17:59:00,SystemResetWarning,0830.1,5.00,000.00,024.4,023.8,000.0,032.6,026.2,011.2,0000.0,0008.03,0003.45,0002.07
